Time,TemperatureF,DewpointF,PressureIn,WindDirection,WindDirectionDegrees,WindSpeedMPH,WindSpeedGustMPH,Humidity,HourlyPrecipIn,Conditions,Clouds,dailyrainin,SolarRadiationWatts/m^2,SoftwareType,DateUTC
2013-06-02 00:02:00,49.3,44.0,30.21,SSW,213,0.0,5.0,83,0.00,,,0.00,0,weatherlink.com 1.10,2013-06-02 08:02:00,
2013-06-02 00:17:00,49.1,45.0,30.22,SSW,213,0.0,5.0,84,0.00,,,0.00,0,weatherlink.com 1.10,2013-06-02 08:17:00,
2013-06-02 00:32:00,49.3,45.0,30.22,SSW,213,2.0,5.0,84,0.00,,,0.00,0,weatherlink.com 1.10,2013-06-02 08:32:00,
2013-06-02 00:47:00,49.3,45.0,30.22,ESE,115,0.0,5.0,86,0.00,,,0.00,0,weatherlink.com 1.10,2013-06-02 08:47:00,
2013-06-02 01:02:00,49.2,45.0,30.23,SE,129,5.0,8.0,86,0.00,,,0.00,0,weatherlink.com 1.10,2013-06-02 09:02:00,
2013-06-02 01:17:00,48.3,45.0,30.23,SE,142,5.0,12.0,87,0.00,,,0.00,0,weatherlink.com 1.10,2013-06-02 09:17:00,
2013-06-02 01:33:00,47.9,45.0,30.23,SE,125,4.0,9.0,88,0.00,,,0.00,0,weatherlink.com 1.10,2013-06-02 09:33:00,
2013-06-02 01:48:00,47.7,45.0,30.23,ESE,115,0.0,7.0,89,0.00,,,0.00,0,weatherlink.com 1.10,2013-06-02 09:48:00,
2013-06-02 02:03:00,47.3,45.0,30.23,South,169,7.0,9.0,90,0.00,,,0.00,0,weatherlink.com 1.10,2013-06-02 10:03:00,
2013-06-02 02:18:00,47.0,45.0,30.23,SE,144,0.0,8.0,91,0.00,,,0.00,0,weatherlink.com 1.10,2013-06-02 10:18:00,
2013-06-02 02:33:00,46.8,44.0,30.23,SSE,147,1.0,7.0,91,0.00,,,0.00,0,weatherlink.com 1.10,2013-06-02 10:33:00,
2013-06-02 02:48:00,46.6,44.0,30.23,South,169,0.0,9.0,92,0.00,,,0.00,0,weatherlink.com 1.10,2013-06-02 10:48:00,
2013-06-02 03:03:00,46.7,45.0,30.23,SSE,166,3.0,6.0,92,0.00,,,0.00,0,weatherlink.com 1.10,2013-06-02 11:03:00,
2013-06-02 03:18:00,46.5,45.0,30.24,SE,140,0.0,7.0,93,0.00,,,0.00,0,weatherlink.com 1.10,2013-06-02 11:18:00,
2013-06-02 03:33:00,46.3,44.0,30.23,ESE,120,5.0,5.0,93,0.00,,,0.00,0,weatherlink.com 1.10,2013-06-02 11:33:00,
2013-06-02 03:48:00,46.1,44.0,30.24,SE,125,4.0,8.0,93,0.00,,,0.00,0,weatherlink.com 1.10,2013-06-02 11:48:00,
2013-06-02 04:03:00,46.1,45.0,30.24,SE,125,2.0,5.0,94,0.00,,,0.00,0,weatherlink.com 1.10,2013-06-02 12:03:00,
2013-06-02 04:18:00,46.3,45.0,30.24,SE,125,0.0,4.0,94,0.01,,,0.01,0,weatherlink.com 1.10,2013-06-02 12:18:00,
2013-06-02 04:33:00,46.5,45.0,30.24,ESE,123,0.0,2.0,94,0.02,,,0.02,0,weatherlink.com 1.10,2013-06-02 12:33:00,
2013-06-02 04:48:00,46.4,45.0,30.23,ESE,111,1.0,4.0,95,0.02,,,0.02,0,weatherlink.com 1.10,2013-06-02 12:48:00,
2013-06-02 05:03:00,46.2,45.0,30.23,ESE,110,0.0,4.0,95,0.03,,,0.03,0,weatherlink.com 1.10,2013-06-02 13:03:00,
2013-06-02 05:18:00,46.2,45.0,30.23,ESE,105,0.0,4.0,95,0.03,,,0.04,0,weatherlink.com 1.10,2013-06-02 13:18:00,
2013-06-02 05:33:00,46.2,45.0,30.23,ESE,103,0.0,5.0,95,0.03,,,0.05,5,weatherlink.com 1.10,2013-06-02 13:33:00,
2013-06-02 05:48:00,46.2,45.0,30.23,East,92,0.0,4.0,95,0.04,,,0.06,9,weatherlink.com 1.10,2013-06-02 13:48:00,
2013-06-02 06:03:00,46.2,45.0,30.23,East,92,1.0,4.0,95,0.04,,,0.07,11,weatherlink.com 1.10,2013-06-02 14:03:00,
2013-06-02 06:18:00,46.1,45.0,30.23,East,92,2.0,5.0,95,0.03,,,0.07,9,weatherlink.com 1.10,2013-06-02 14:18:00,
2013-06-02 06:33:00,46.3,45.0,30.23,East,92,0.0,5.0,95,0.03,,,0.08,9,weatherlink.com 1.10,2013-06-02 14:33:00,
2013-06-02 06:48:00,46.3,45.0,30.23,East,92,2.0,3.0,95,0.02,,,0.08,14,weatherlink.com 1.10,2013-06-02 14:48:00,
2013-06-02 07:03:00,46.2,45.0,30.23,East,92,2.0,6.0,95,0.01,,,0.08,16,weatherlink.com 1.10,2013-06-02 15:03:00,
2013-06-02 07:18:00,46.1,45.0,30.23,East,92,2.0,5.0,95,0.02,,,0.09,12,weatherlink.com 1.10,2013-06-02 15:18:00,
2013-06-02 07:33:00,46.1,45.0,30.23,East,92,1.0,5.0,95,0.01,,,0.09,11,weatherlink.com 1.10,2013-06-02 15:33:00,
2013-06-02 07:48:00,46.3,45.0,30.23,ENE,72,4.0,5.0,95,0.04,,,0.12,14,weatherlink.com 1.10,2013-06-02 15:48:00,
2013-06-02 08:03:00,46.2,45.0,30.23,ENE,66,2.0,5.0,95,0.05,,,0.13,18,weatherlink.com 1.10,2013-06-02 16:03:00,
2013-06-02 08:18:00,46.3,45.0,30.23,ENE,63,3.0,4.0,95,0.06,,,0.15,35,weatherlink.com 1.10,2013-06-02 16:18:00,
2013-06-02 08:33:00,46.5,45.0,30.23,NE,42,2.0,5.0,95,0.07,,,0.16,47,weatherlink.com 1.10,2013-06-02 16:33:00,
2013-06-02 08:48:00,46.6,45.0,30.23,NE,42,4.0,5.0,94,0.04,,,0.16,53,weatherlink.com 1.10,2013-06-02 16:48:00,
2013-06-02 09:03:00,47.8,46.0,30.23,North,9,6.0,6.0,92,0.02,,,0.16,53,weatherlink.com 1.10,2013-06-02 17:03:00,
2013-06-02 09:18:00,47.8,46.0,30.23,North,5,2.0,6.0,94,0.01,,,0.16,62,weatherlink.com 1.10,2013-06-02 17:18:00,
2013-06-02 09:33:00,47.8,46.0,30.23,North,5,1.0,5.0,93,0.02,,,0.18,70,weatherlink.com 1.10,2013-06-02 17:33:00,
2013-06-02 09:48:00,47.5,45.0,30.22,NW,317,0.0,5.0,89,0.02,,,0.18,83,weatherlink.com 1.10,2013-06-02 17:48:00,
2013-06-02 10:03:00,48.8,46.0,30.23,NW,324,2.0,6.0,91,0.02,,,0.18,67,weatherlink.com 1.10,2013-06-02 18:03:00,
2013-06-02 10:18:00,48.0,45.0,30.23,NW,324,0.0,4.0,90,0.01,,,0.18,69,weatherlink.com 1.10,2013-06-02 18:18:00,
2013-06-02 10:33:00,47.8,45.0,30.23,NW,324,2.0,5.0,90,0.02,,,0.20,63,weatherlink.com 1.10,2013-06-02 18:33:00,
2013-06-02 10:48:00,48.4,46.0,30.23,NW,317,0.0,6.0,91,0.02,,,0.20,107,weatherlink.com 1.10,2013-06-02 18:48:00,
2013-06-02 11:03:00,48.2,46.0,30.23,NW,313,1.0,5.0,90,0.02,,,0.20,109,weatherlink.com 1.10,2013-06-02 19:03:00,
2013-06-02 11:18:00,48.0,45.0,30.23,WNW,293,4.0,6.0,90,0.02,,,0.20,100,weatherlink.com 1.10,2013-06-02 19:18:00,
2013-06-02 11:33:00,47.6,45.0,30.23,West,273,2.0,6.0,90,0.00,,,0.20,86,weatherlink.com 1.10,2013-06-02 19:33:00,
2013-06-02 11:48:00,47.6,45.0,30.23,West,269,4.0,6.0,90,0.00,,,0.20,90,weatherlink.com 1.10,2013-06-02 19:48:00,
2013-06-02 12:03:00,47.8,45.0,30.22,SW,235,6.0,8.0,89,0.00,,,0.20,120,weatherlink.com 1.10,2013-06-02 20:03:00,
2013-06-02 12:18:00,46.9,45.0,30.22,SSW,198,5.0,12.0,91,0.00,,,0.20,81,weatherlink.com 1.10,2013-06-02 20:18:00,
2013-06-02 12:33:00,46.9,44.0,30.23,SW,236,4.0,11.0,90,0.00,,,0.20,95,weatherlink.com 1.10,2013-06-02 20:33:00,
2013-06-02 12:48:00,46.6,44.0,30.23,SW,236,7.0,12.0,89,0.00,,,0.20,74,weatherlink.com 1.10,2013-06-02 20:48:00,
2013-06-02 13:03:00,46.6,44.0,30.23,SW,217,10.0,11.0,90,0.00,,,0.20,95,weatherlink.com 1.10,2013-06-02 21:03:00,
2013-06-02 13:18:00,46.6,44.0,30.23,WSW,238,9.0,11.0,90,0.00,,,0.20,134,weatherlink.com 1.10,2013-06-02 21:18:00,
2013-06-02 13:33:00,46.8,44.0,30.22,SW,231,6.0,11.0,90,0.00,,,0.20,160,weatherlink.com 1.10,2013-06-02 21:33:00,
2013-06-02 13:48:00,47.0,44.0,30.22,WSW,255,6.0,11.0,88,0.00,,,0.20,192,weatherlink.com 1.10,2013-06-02 21:48:00,
2013-06-02 14:04:00,47.4,44.0,30.22,WSW,253,8.0,10.0,89,0.00,,,0.20,297,weatherlink.com 1.10,2013-06-02 22:04:00,
2013-06-02 14:19:00,48.1,45.0,30.22,WSW,256,6.0,9.0,89,0.00,,,0.20,243,weatherlink.com 1.10,2013-06-02 22:19:00,
2013-06-02 14:34:00,47.6,45.0,30.22,WSW,252,8.0,9.0,89,0.00,,,0.20,162,weatherlink.com 1.10,2013-06-02 22:34:00,
2013-06-02 14:49:00,47.6,45.0,30.21,SW,223,8.0,11.0,90,0.00,,,0.20,211,weatherlink.com 1.10,2013-06-02 22:49:00,
2013-06-02 15:04:00,47.8,45.0,30.21,WSW,251,6.0,10.0,89,0.00,,,0.20,274,weatherlink.com 1.10,2013-06-02 23:04:00,
2013-06-02 15:19:00,48.1,45.0,30.21,West,268,10.0,12.0,90,0.00,,,0.20,281,weatherlink.com 1.10,2013-06-02 23:19:00,
2013-06-02 15:34:00,48.5,46.0,30.20,WSW,250,7.0,13.0,89,0.00,,,0.20,257,weatherlink.com 1.10,2013-06-02 23:34:00,
2013-06-02 15:49:00,48.8,46.0,30.20,WSW,244,9.0,13.0,89,0.00,,,0.20,759,weatherlink.com 1.10,2013-06-02 23:49:00,
2013-06-02 16:04:00,49.4,46.0,30.19,West,273,8.0,13.0,88,0.00,,,0.20,225,weatherlink.com 1.10,2013-06-03 00:04:00,
2013-06-02 16:19:00,49.7,46.0,30.19,West,270,10.0,14.0,88,0.00,,,0.20,209,weatherlink.com 1.10,2013-06-03 00:19:00,
2013-06-02 16:34:00,50.1,46.0,30.18,West,267,10.0,13.0,86,0.00,,,0.20,274,weatherlink.com 1.10,2013-06-03 00:34:00,
2013-06-02 16:49:00,50.9,46.0,30.17,WNW,284,9.0,15.0,83,0.00,,,0.20,645,weatherlink.com 1.10,2013-06-03 00:49:00,
2013-06-02 17:04:00,51.7,46.0,30.17,WSW,248,13.0,14.0,82,0.00,,,0.20,563,weatherlink.com 1.10,2013-06-03 01:04:00,
2013-06-02 17:19:00,51.2,46.0,30.16,WSW,247,12.0,15.0,81,0.00,,,0.20,582,weatherlink.com 1.10,2013-06-03 01:19:00,
2013-06-02 17:34:00,51.7,46.0,30.16,WSW,253,11.0,14.0,80,0.00,,,0.20,452,weatherlink.com 1.10,2013-06-03 01:34:00,
2013-06-02 17:49:00,52.2,46.0,30.15,West,264,11.0,16.0,79,0.00,,,0.20,568,weatherlink.com 1.10,2013-06-03 01:49:00,
2013-06-02 18:04:00,52.3,46.0,30.15,NW,307,10.0,18.0,79,0.00,,,0.20,105,weatherlink.com 1.10,2013-06-03 02:04:00,
2013-06-02 18:19:00,52.5,45.0,30.14,WSW,257,12.0,16.0,76,0.00,,,0.20,499,weatherlink.com 1.10,2013-06-03 02:19:00,
2013-06-02 18:34:00,52.7,45.0,30.14,WSW,252,10.0,16.0,75,0.00,,,0.20,476,weatherlink.com 1.10,2013-06-03 02:34:00,
2013-06-02 18:49:00,53.3,46.0,30.14,WNW,290,8.0,13.0,76,0.00,,,0.20,480,weatherlink.com 1.10,2013-06-03 02:49:00,
2013-06-02 19:04:00,53.5,46.0,30.13,WSW,248,9.0,13.0,77,0.00,,,0.20,418,weatherlink.com 1.10,2013-06-03 03:04:00,
2013-06-02 19:19:00,54.1,46.0,30.13,WNW,286,6.0,13.0,74,0.00,,,0.20,369,weatherlink.com 1.10,2013-06-03 03:19:00,
2013-06-02 19:34:00,54.3,47.0,30.13,NW,306,6.0,12.0,75,0.00,,,0.00,250,weatherlink.com 1.10,2013-06-03 03:34:00,
2013-06-02 19:49:00,54.4,46.0,30.12,WSW,251,6.0,12.0,74,0.00,,,0.00,246,weatherlink.com 1.10,2013-06-03 03:49:00,
2013-06-02 20:04:00,54.3,45.0,30.11,NW,306,7.0,13.0,72,0.00,,,0.00,206,weatherlink.com 1.10,2013-06-03 04:04:00,
2013-06-02 20:19:00,54.1,46.0,30.11,West,267,5.0,11.0,75,0.00,,,0.00,207,weatherlink.com 1.10,2013-06-03 04:19:00,
2013-06-02 20:34:00,53.5,47.0,30.10,WSW,253,7.0,12.0,78,0.00,,,0.00,207,weatherlink.com 1.10,2013-06-03 04:34:00,
2013-06-02 20:49:00,53.2,47.0,30.10,WSW,242,8.0,10.0,80,0.00,,,0.00,193,weatherlink.com 1.10,2013-06-03 04:49:00,
2013-06-02 21:04:00,54.1,47.0,30.10,WNW,286,4.0,9.0,78,0.00,,,0.00,160,weatherlink.com 1.10,2013-06-03 05:04:00,
2013-06-02 21:19:00,53.4,48.0,30.09,WSW,255,5.0,8.0,81,0.00,,,0.00,123,weatherlink.com 1.10,2013-06-03 05:19:00,
2013-06-02 21:34:00,53.2,48.0,30.10,WSW,249,5.0,8.0,81,0.00,,,0.00,70,weatherlink.com 1.10,2013-06-03 05:34:00,
2013-06-02 21:49:00,53.2,48.0,30.09,West,267,5.0,8.0,81,0.00,,,0.00,63,weatherlink.com 1.10,2013-06-03 05:49:00,
2013-06-02 22:04:00,53.2,48.0,30.09,WSW,243,7.0,7.0,82,0.00,,,0.00,47,weatherlink.com 1.10,2013-06-03 06:04:00,
2013-06-02 22:19:00,52.2,48.0,30.09,WSW,246,5.0,8.0,84,0.00,,,0.00,26,weatherlink.com 1.10,2013-06-03 06:19:00,
2013-06-02 22:34:00,52.3,48.0,30.09,WSW,248,5.0,7.0,84,0.00,,,0.00,16,weatherlink.com 1.10,2013-06-03 06:34:00,
2013-06-02 22:49:00,52.1,48.0,30.09,WSW,248,6.0,8.0,85,0.00,,,0.00,16,weatherlink.com 1.10,2013-06-03 06:49:00,
2013-06-02 23:04:00,52.2,48.0,30.09,WSW,254,4.0,6.0,85,0.00,,,0.00,14,weatherlink.com 1.10,2013-06-03 07:04:00,
2013-06-02 23:19:00,52.0,48.0,30.09,WSW,254,1.0,6.0,85,0.00,,,0.00,9,weatherlink.com 1.10,2013-06-03 07:19:00,
2013-06-02 23:34:00,51.8,48.0,30.09,WSW,254,0.0,5.0,85,0.00,,,0.00,0,weatherlink.com 1.10,2013-06-03 07:34:00,
2013-06-02 23:49:00,51.8,48.0,30.09,WSW,254,0.0,5.0,85,0.00,,,0.00,0,weatherlink.com 1.10,2013-06-03 07:49:00,